Theta_e
334 344 346 344 346 349 349 347 350 348 348 352 351 348 344 349 350 349 344 348 350 349 347 350 350 349 349 342 346 346 345 346 344 341 342 343 341 346 348 347 351 343 347
342 346 344 341 343 343 345 348 344 349 349 350 350 350 346 348 346 347 344 345 350 349 347 344 345 346 345 344 345 345 349 349 348 346 340 346 347 349 349 347 344 349 347
349 350 347 347 348 349 345 343 348 346 344 347 346 348 348 348 349 349 347 346 347 349 349 348 347 347 349 349 349 347 346 345 345 347 346 348 347 350 349 348 346 346 349
348 348 348 347 348 347 348 349 347 349 347 345 346 346 346 347 348 348 347 348 348 345 347 350 350 350 350 350 350 349 347 347 350 347 347 346 341 343 344 343 341 336 335
341 347 346 343 340 348 349 348 349 349 346 346 345 346 345 346 344 344 345 347 348 346 349 349 350 351 348 347 348 348 347 346 342 341 338 337 341 343 343 343 343 343 342
338 343 347 346 337 337 342 348 347 350 348 348 347 348 347 347 347 346 346 347 347 349 348 346 347 350 346 344 347 346 346 348 348 348 348 349 348 349 348 347 348 347 346
346 346 344 343 343 344 339 343 344 345 347 347 349 347 349 345 344 344 345 348 347 346 347 349 348 346 344 346 346 345 347 343 341 342 344 345 346 347 347 346 344 345 347
341 340 341 343 344 344 344 345 344 343 342 343 342 344 344 344 342 342 342 344 347 346 345 343 342 341 341 342 343 344 345 345 343 344 345 346 346 345 343 342 345 347 347
342 342 341 340 341 341 341 341 341 340 341 342 342 342 341 342 343 341 341 342 344 344 342 343 343 342 343 343 342 341 342 343 345 343 339 336 337 338 342 343 342 339 339
343 341 341 340 340 340 341 340 340 340 340 343 343 342 339 337 336 340 343 343 342 342 344 343 343 343 341 340 339 339 338 337 336 334 338 340 341 341 340 336 335 335 339
342 341 340 339 339 339 338 336 336 340 340 339 339 339 336 338 339 339 342 344 343 343 344 341 338 333 331 331 329 327 326 325 328 336 336 336 337 336 335 335 334 331 330
339 339 339 338 338 338 337 336 337 339 339 339 338 340 339 338 338 339 340 341 339 338 338 336 335 333 323 322 322 322 322 325 330 332 334 334 334 334 334 333 332 331 330
337 338 339 337 336 337 338 338 337 336 335 335 333 334 334 332 330 332 333 333 335 336 332 329 324 322 320 318 318 320 322 322 325 327 330 332 332 332 332 332 322 319 322
334 334 333 333 331 333 335 335 336 337 336 334 331 329 329 329 327 327 327 326 325 324 322 322 321 317 316 317 320 322 325 325 325 325 326 327 328 328 324 316 313 311 311
325 327 329 329 328 327 328 329 329 332 332 331 330 329 327 328 325 320 320 319 319 318 315 312 311 315 319 321 322 322 322 323 324 324 321 316 310 308 308 308 309 309 311
313 315 317 316 316 317 323 325 325 326 327 327 327 327 325 325 323 317 311 309 307 306 308 309 309 310 313 311 309 312 311 309 308 307 306 305 305 305 306 306 307 306 307
314 316 316 318 316 317 315 313 312 316 315 316 325 325 323 322 315 308 304 303 306 313 313 313 311 310 309 308 307 307 306 305 305 305 304 305 305 305 305 305 305 304 304
315 315 315 314 313 313 313 313 313 313 312 307 306 307 308 306 303 302 303 308 311 311 311 312 311 309 309 307 306 305 304 303 303 303 303 303 303 304 303 302 302 301 301
307 310 310 312 312 313 312 312 312 311 312 311 310 306 301 301 302 308 310 310 309 309 309 309 308 307 305 303 302 301 301 301 301 301 301 301 301 301 301 300 300 300 300
307 306 309 310 309 310 310 310 310 310 310 310 309 308 303 303 303 307 309 308 308 308 307 305 304 302 301 301 301 300 300 300 300 300 300 299 299 298 298 298 298 299 299
315 311 307 308 308 308 308 307 309 309 309 309 309 308 308 307 307 307 306 305 306 305 304 302 301 300 300 300 299 299 299 299 299 299 298 297 297 297 297 297 298 298 298
305 306 306 306 307 306 307 307 307 308 308 308 308 308 308 307 307 306 306 304 303 301 301 300 300 299 299 298 298 298 298 298 297 297 297 297 297 297 297 296 297 298 299
305 308 308 306 304 305 306 306 307 307 307 307 307 306 304 306 306 305 305 304 303 301 300 299 299 298 298 298 298 298 297 297 297 297 297 297 297 296 296 296 297 298 298
307 308 308 307 305 305 306 306 306 306 306 305 305 305 305 304 305 305 304 302 301 299 299 298 297 297 297 297 297 297 297 297 297 297 297 296 296 296 296 296 296 297 298
310 310 309 308 307 306 306 306 305 305 305 305 305 305 305 305 304 304 304 304 303 300 299 298 297 297 296 297 297 297 297 296 296 297 297 297 296 296 295 296 296 297 298
314 312 311 310 308 307 306 306 306 305 306 305 305 305 305 305 305 304 304 303 303 302 300 299 298 296 296 297 296 296 296 296 297 297 297 296 296 296 296 296 296 295 297
Wind_Speed
19 18 17 16 19 15 15 16 14 15 15 12 12 9 14 13 13 13 11 11 6 10 9 11 9 8 6 9 11 11 10 9 10 12 12 8 4 6 11 13 10 14 18
19 15 12 14 14 12 13 12 15 15 16 15 14 14 12 11 10 8 7 9 9 3 4 6 9 8 9 9 9 9 8 9 11 12 12 10 10 15 7 7 7 10 11
20 18 15 13 14 10 8 12 11 11 13 18 16 13 13 13 12 10 9 8 11 7 6 5 5 4 6 8 8 8 9 11 10 7 8 10 11 6 11 9 11 13 12
22 21 20 17 15 12 12 11 14 12 11 9 14 12 12 10 11 9 8 8 10 12 9 6 7 7 9 11 10 7 6 7 9 9 11 14 16 16 18 20 20 18 19
24 24 26 23 20 21 16 17 16 15 14 11 11 12 11 13 13 10 7 6 7 8 9 6 7 9 9 10 12 12 13 14 14 13 14 13 12 13 16 18 19 19 17
25 19 19 29 18 21 25 19 17 20 16 14 12 13 14 14 12 10 9 7 8 9 7 7 11 13 13 10 11 10 10 10 11 12 11 14 15 16 18 20 21 23 28
19 17 17 15 14 22 29 24 20 18 18 16 17 18 16 17 13 10 9 9 11 9 9 11 10 11 12 11 10 11 10 9 14 15 16 17 18 17 20 22 22 22 22
18 14 11 13 15 16 17 17 18 17 19 20 20 19 18 17 15 12 12 12 14 15 16 16 16 14 14 15 14 13 15 17 17 16 16 17 17 16 14 17 18 18 18
14 10 12 15 15 15 16 17 18 15 14 20 21 16 13 11 10 11 12 13 14 16 18 18 18 17 16 15 15 14 13 12 11 11 11 11 11 10 12 14 15 17 18
13 14 13 11 10 9 9 11 11 12 14 11 14 13 11 8 8 7 6 10 12 13 10 4 6 8 8 6 5 6 5 5 5 3 6 6 7 4 6 11 15 17 17
17 14 11 9 8 8 9 7 5 6 9 10 10 12 11 11 10 10 8 9 11 11 9 4 2 2 1 1 2 4 5 4 1 2 3 1 2 4 6 9 10 12 12
15 13 12 10 8 8 9 9 7 5 5 5 8 12 13 9 9 9 11 11 10 8 8 5 4 3 4 3 4 5 2 2 3 4 4 7 8 11 13 14 15 14 10
19 21 20 17 15 14 12 9 9 8 5 5 7 7 7 6 6 8 8 9 10 10 7 6 6 5 6 4 6 6 7 8 8 8 8 9 12 14 17 20 21 19 17
13 12 13 14 14 14 14 15 13 11 9 8 9 7 5 5 4 6 7 6 6 7 8 10 9 9 10 9 10 9 6 7 9 9 11 13 15 19 19 18 16 16 16
10 10 10 9 8 10 11 10 11 13 11 11 10 10 7 8 4 3 6 8 10 9 12 12 10 9 10 9 9 10 9 10 11 13 14 15 14 15 13 14 16 17 17
11 11 9 8 4 5 7 8 8 8 10 10 11 12 11 12 12 13 12 9 7 6 7 6 5 8 9 9 9 12 10 9 9 7 8 10 11 13 15 14 15 17 20
11 10 7 4 4 1 3 2 6 13 13 13 16 17 16 17 16 11 6 5 9 11 8 6 5 4 5 4 4 4 5 6 9 10 11 12 15 18 20 21 22 22 22
11 11 13 14 8 4 2 0 1 3 2 2 7 12 15 13 8 7 9 13 11 11 10 9 8 8 7 6 5 5 7 8 9 11 13 15 16 19 22 23 23 24 24
9 13 15 15 13 15 12 9 5 4 3 2 4 4 4 6 10 13 12 12 12 11 11 10 10 9 6 6 6 6 8 10 11 12 14 16 17 18 19 20 21 22 23
9 12 16 14 13 12 13 9 11 10 7 6 5 0 2 7 10 11 12 13 13 12 11 10 8 6 5 5 6 7 9 10 11 13 15 16 18 18 19 20 20 23 24
16 15 14 15 15 11 13 10 10 13 10 10 9 4 4 4 7 8 8 13 14 12 10 8 6 5 4 5 6 7 9 11 13 14 16 18 19 19 19 19 20 21 23
11 10 10 15 17 15 13 14 12 11 11 10 10 9 11 16 14 12 11 8 9 9 6 5 5 5 5 6 7 9 11 14 16 18 20 21 21 20 20 19 18 20 22
12 11 12 9 16 17 15 18 18 12 13 7 10 11 10 18 14 14 12 11 8 7 5 4 4 6 7 8 11 13 14 15 18 20 22 22 21 20 19 19 18 19 19
14 14 16 14 10 17 14 13 14 16 13 12 12 7 7 17 13 12 11 10 9 8 7 6 7 8 8 10 11 13 14 16 19 20 21 21 20 19 19 18 15 18 17
21 16 17 20 17 16 17 16 12 18 15 16 13 12 10 13 12 12 11 9 8 7 7 7 7 9 9 10 11 11 14 15 18 21 21 21 19 18 17 16 14 17 14
21 21 21 20 22 22 21 20 16 16 18 18 14 14 17 16 14 12 10 10 10 9 9 10 10 10 9 8 10 13 14 16 18 20 20 19 18 17 15 14 13 16 17
Wind_Direction
193 194 204 205 204 206 205 208 212 209 212 218 238 244 201 203 219 242 236 232 241 248 239 243 256 264 290 280 270 282 285 306 310 305 314 338 19 358 337 329 344 5 9
191 190 207 209 211 215 224 211 221 221 227 230 235 229 212 221 233 233 224 234 243 246 354 258 263 271 291 301 301 282 294 295 308 314 333 359 344 348 22 17 10 357 351
189 201 201 199 203 208 224 223 218 222 234 243 235 229 225 222 228 232 243 232 231 240 251 281 288 283 290 294 292 296 290 279 291 311 311 333 350 332 338 331 334 318 319
194 195 200 199 197 215 233 234 242 230 230 232 224 224 226 224 232 249 247 238 243 232 228 252 274 273 278 280 295 303 291 308 318 307 310 313 315 312 314 318 315 322 320
222 203 191 186 228 205 214 224 232 243 243 225 217 217 207 211 220 225 240 259 246 237 232 228 261 258 274 277 284 299 296 297 297 300 307 310 320 328 333 329 328 327 330
234 204 215 228 207 256 213 216 221 222 235 228 222 218 219 227 231 238 241 248 252 232 224 243 244 258 265 273 270 270 277 284 298 304 306 313 320 324 324 327 326 325 324
209 215 225 236 218 208 208 228 229 240 230 231 234 235 233 240 245 248 256 246 245 252 254 266 262 266 279 291 296 289 274 282 293 299 306 312 318 325 325 325 327 326 327
195 196 202 208 205 205 208 215 218 229 233 225 227 233 235 242 252 249 248 245 237 248 260 271 277 281 280 283 288 287 286 290 295 304 309 316 321 326 335 340 339 334 334
204 210 206 212 215 219 224 229 228 233 236 240 235 232 245 246 244 249 246 241 240 249 260 266 266 266 272 279 283 284 284 286 297 315 331 350 352 356 3 348 350 349 339
186 175 180 194 212 214 221 224 231 231 235 224 214 211 219 237 255 275 236 228 234 237 238 209 235 252 262 269 282 295 306 319 333 19 77 79 23 27 21 9 358 360 353
183 176 183 196 210 205 193 186 179 196 194 194 208 218 215 217 225 230 222 203 214 215 204 185 171 1 306 331 6 355 352 358 32 99 63 42 147 297 312 306 325 334 343
192 190 179 178 172 168 181 188 191 205 212 230 197 201 208 213 200 196 197 190 189 199 202 214 275 261 294 331 308 300 308 277 247 245 266 279 290 295 302 303 302 297 305
172 167 178 181 181 170 160 152 145 134 131 160 169 178 194 171 180 174 183 188 194 212 234 233 236 246 254 248 255 245 250 257 261 275 283 287 294 296 294 294 296 293 289
182 175 176 181 181 178 175 167 166 167 175 188 205 197 192 197 179 183 205 214 214 227 242 260 263 259 266 246 245 248 247 274 287 292 292 294 296 297 299 303 307 315 316
145 152 175 177 168 172 172 176 177 182 186 188 170 196 228 268 279 224 258 260 258 254 258 251 245 235 225 229 244 255 258 264 271 288 296 297 300 302 305 307 309 312 313
130 131 129 126 106 205 223 212 204 204 214 222 213 228 241 257 273 289 288 271 252 216 213 230 224 230 236 238 239 252 266 276 282 293 301 305 302 304 313 319 319 315 312
157 154 132 146 120 127 38 3 252 251 249 241 242 248 262 271 281 273 252 201 160 156 169 211 225 205 213 225 251 276 296 303 313 319 314 310 313 315 319 322 322 320 317
170 183 177 170 175 164 136 87 60 17 26 232 256 258 258 255 239 203 169 155 153 162 179 207 223 228 235 253 274 300 303 303 309 315 315 312 311 313 319 323 326 325 323
191 187 179 190 201 208 206 222 227 232 216 284 323 302 228 191 173 164 164 165 179 204 217 230 239 249 265 286 302 307 308 315 320 321 317 317 322 324 324 323 323 322 323
214 190 194 203 205 211 214 220 190 219 230 246 257 40 101 144 169 182 184 188 200 223 240 246 251 262 285 310 321 322 321 316 316 324 325 327 331 332 331 332 333 333 335
239 232 225 219 224 227 202 196 215 228 229 231 230 228 240 235 195 219 210 220 228 234 242 253 270 286 301 310 317 322 319 318 328 334 332 334 336 334 335 335 336 337 340
225 234 236 235 223 206 207 210 215 200 212 227 222 239 259 197 189 227 250 239 230 236 242 240 253 271 294 311 320 328 329 336 334 333 334 334 333 331 329 330 330 336 340
218 237 256 266 221 219 223 222 221 216 223 232 221 234 227 198 210 231 246 257 255 246 246 258 286 305 317 322 326 333 334 331 331 331 330 330 330 327 327 328 330 334 335
225 226 248 257 244 219 228 237 229 218 219 244 236 229 216 205 221 243 251 241 236 243 265 284 288 292 315 327 325 331 330 330 329 329 329 331 331 326 324 326 322 327 329
235 224 241 249 250 237 238 245 239 218 222 223 223 224 204 206 225 236 245 261 266 267 269 272 288 310 320 321 329 329 329 331 331 329 332 333 330 325 323 322 315 327 331
243 238 235 242 241 243 233 238 246 226 234 229 215 214 214 222 220 219 229 242 265 280 287 298 298 303 305 324 335 336 339 335 337 342 344 346 344 338 329 327 323 329 330